Regional Weather Roundup
Issued by NWS

Home | Current Version | Previous Version | Graphics & Text | Print | Product List | Glossary On
Versions: 1 2 3 4 5 6 7 8 9 10 11 12 13 14 15 16 17 18 19 20 21 22 23 24 25 26 27
000
ASUS45 KBOU 161407
RWRCO

WEATHER ROUNDUP FOR COLORADO
NATIONAL WEATHER SERVICE DENVER/BOULDER CO
700 AM MST MON JAN 16 2017

NOTE: "FAIR" INDICATES FEW OR NO CLOUDS BELOW 12000 FEET WITH NO
SIGNIFICANT WEATHER AND/OR OBSTRUCTIONS TO VISIBILITY.

COZ001>005-013-030-031-161500-
...NORTHWEST COLORADO...

CITY           SKY/WX    TMP DP  RH WIND       PRES   REMARKS
CRAIG          CLOUDY    13   9  84 NW3       30.12R
HAYDEN         CLOUDY    14  10  85 W5        30.08R WCI   6
MEEKER         FAIR      15  12  88 S3        30.07R
MOUNT WERNER   NOT AVBL
STEAMBOAT SPGS CLOUDY    18  17  93 CALM      30.06R
WALDEN           N/A    N/A N/A N/A CALM      30.03R
$$

COZ006>008-011-161500-
...WEST CENTRAL VALLEYS...

CITY           SKY/WX    TMP DP  RH WIND       PRES   REMARKS
GRAND JUNCTION FAIR      33  17  51 E3        30.01R
MONTROSE       CLOUDY    31  29  92 CALM      30.03R
EAGLE          LGT SNOW  27  27 100 CALM      30.03R FOG
RIFLE          CLOUDY    29  16  58 NW12      30.04R WCI  19
DELTA          CLOUDY    35  31  87 NE5       30.02R WCI  31
NUCLA          FAIR      32  30  93 SE3       30.01R
$$

COZ017>023-064>068-161500-
...SOUTHWEST COLORADO...

CITY           SKY/WX    TMP DP  RH WIND       PRES   REMARKS
DURANGO        CLOUDY    33  30  88 CALM      29.89R
CORTEZ         FAIR      32  29  88 NW3       29.91S
PAGOSA SPRINGS LGT SNOW  32  32 100 CALM      29.90R
TELLURIDE      CLOUDY    26  25  99 CALM      29.94R
WOLF CREEK PAS CLOUDY    21  21 100 N7        29.97R WCI  13
$$

COZ009-010-012-014-032>034-037-058>063-161500-
...CENTRAL COLORADO...

CITY           SKY/WX    TMP DP  RH WIND       PRES   REMARKS
ASPEN          CLOUDY    25  24  96 NW6       29.97R WCI  18
BUENA VISTA    CLOUDY    29  28  96 CALM      29.91R FOG
COPPER MTN     HAZE      23  18  80 MISG      29.97R VSB 1/4
BERTHOUD PASS  NOT AVBL
COTTONWOOD PAS LGT SNOW  32  30  93 E3        29.93R
GUNNISON       LGT SNOW  22  21  96 CALM      29.95R FOG
KREMMLING      FLURRIES  27  23  86 CALM      30.02R
LEADVILLE      CLOUDY    21  17  84 N8        29.92R WCI  11
MONARCH PASS   HVY SNOW  23  21  93 MISG      30.03R VSB<1/4
SALIDA         CLOUDY    33  32  98 CALM      29.99R
SUNLIGHT       CLOUDY    19  18  93 NE8       30.00S FOG     WCI   9
WILKERSON PASS CLOUDY   N/A N/A N/A NE14G22   29.95R
$$

COZ069>075-161500-
...SAN LUIS VALLEY/SANGRE DE CRISTO MOUNTAINS...

CITY           SKY/WX    TMP DP  RH WIND       PRES   REMARKS
ALAMOSA        LGT SNOW  30  30 100 NE3       29.88R FOG
LA VETA PASS   LGT SNOW  25  23  93 SE10G20   29.90R WCI  15
SAGUACHE       MIX PCPN  32  28  86 NW15      29.90R WCI  22
$$

COZ035-036-038>040-161500-
...NORTHERN COLORADO FRONT RANGE...

CITY           SKY/WX    TMP DP  RH WIND       PRES   REMARKS
DENVER INTL AP LGT SNOW  29  26  89 NW12      30.01R VSB 3/4 WCI  19
DMNS CITY PARK   N/A     29  29 100 N8G20     30.03R WCI  21
AURORA         LGT SNOW  28  28 100 NW12      30.01R FOG     WCI  17
FRONT RANGE AP NOT AVBL
ERIE MUNI ARPT LGT SNOW  31  31  99 CALM      30.03R
BOULDER MUN AP LGT SNOW  32  32 100 SW3       30.03R
CENTENNIAL     SNOW      27  26  96 N14       30.01R VSB 1/2 WCI  16
BROOMFIELD     LGT SNOW  30  30 100 N6        30.02R VSB 3/4 WCI  24
FORT COLLINS   CLOUDY    34  27  75 N17       30.03R WCI  23
LONGMONT       LGT SNOW  32  31  96 SW5       30.05R WCI  28
$$

COZ041-046-047-076>085-087-088-161500-
...PIKES PEAK/PALMER DIVIDE AND SOUTHERN FOOTHILLS...

CITY           SKY/WX    TMP DP  RH WIND       PRES   REMARKS
COLO. SPRINGS  CLOUDY    30  22  72 NW26G38   29.92R WCI  16
A. F. ACADEMY  MIX PCPN  28  24  84 N18       29.92R WCI  15
SCHRIEVER AFB  NOT AVBL
ELLICOTT       CLOUDY   N/A N/A N/A N31G38    29.87R
FALCON         CLOUDY    27  20  77 N32G44    29.88R WCI  10
FORT CARSON    LGT SNOW  32  27  80 NE25G37   29.89R VSB 1   WCI  19
LIMON          LGT SNOW  27  26  96 NW22G29   29.92R FOG     WCI  13
MONUMENT HILL  LGT SNOW  23  21  93 N14G21    29.98R WCI  11
TRINIDAD       SNOW      31  29  92 N10       29.91R VSB 1/2 WCI  22
$$

COZ042>045-048>051-090-091-161500-
...NORTHEAST COLORADO...

CITY           SKY/WX    TMP DP  RH WIND       PRES   REMARKS
GREELEY ARPT   FLURRIES  33  25  72 NW8       30.03R WCI  26
AKRON          LGT SNOW  27  25  92 N16       29.94R FOG     WCI  15
BURLINGTON     LGT SNOW  30  28  92 N16       29.89R FOG     WCI  19
WRAY           NOT AVBL
STERLING       MIX PCPN  32  30  93 N13       29.96S WCI  22
HOLYOKE        LGT SNOW  34  32  93 N13       29.94S WCI  25
FORT MORGAN    LGT SNOW  30  28  93 N17G23    29.98R WCI  18
$$

COZ086-089-092>099-161500-
...SOUTHEAST COLORADO...

CITY           SKY/WX    TMP DP  RH WIND       PRES   REMARKS
PUEBLO         LGT SNOW  35  31  85 N20G29    29.91S FOG     WCI  24
LA JUNTA       LGT SNOW  33  30  88 NW9       29.92R FOG     WCI  25
LAMAR          LGT SNOW  32  30  92 NW9       29.88R FOG     WCI  24
SPRINGFIELD      N/A     29  28  96 NW21      29.84R WCI  16
$$




USA.gov is the U.S. government's official web portal to all federal, state and local government web resources and services.